• MPC Preparation (Info)

  • MPEC 2014-W141: 2014 WW363

    The following Minor Planet Electronic Circular may be linked-to from your own Web pages, but must not otherwise be redistributed electronically.

    A form allowing access to any MPEC is at the bottom of this page.


    Read MPEC 2014-W140 Read MPEC 2014-W142


    M.P.E.C. 2014-W141                               Issued 2014 Nov. 28, 14:44 UT
    
         The Minor Planet Electronic Circulars contain information on unusual
             minor planets and routine data on comets.  They are published
       on behalf of Commission 20 of the International Astronomical Union by the
              Minor Planet Center, Smithsonian Astrophysical Observatory,
                              Cambridge, MA 02138, U.S.A.
    
                 Prepared using the Tamkin Foundation Computer Network
    
                                  MPC@CFA.HARVARD.EDU
                URL https://www.minorplanetcenter.net/    ISSN 1523-6714
    
                                      2014 WW363
    
    Observations:
         K14Wa3W* C2014 11 24.35203 03 39 59.644+08 28 49.43         22.0 wLEW141F51
         K14Wa3W  C2014 11 24.38223 03 39 55.468+08 30 42.86         21.8 wLEW141F51
         K14Wa3W  C2014 11 24.39751 03 39 53.341+08 31 39.54         21.4 wLEW141F51
         K14Wa3W  C2014 11 26.30206 03 36 03.999+10 32 27.72         21.4 wLEW141F51
         K14Wa3W  C2014 11 26.31330 03 36 02.446+10 33 11.69         21.4 wLEW141F51
         K14Wa3W  C2014 11 26.32449 03 36 00.872+10 33 55.85         21.3 wLEW141F51
         K14Wa3W KC2014 11 28.43307 03 31 33.51 +12 54 01.2          21.1 RoEW141291
         K14Wa3W KC2014 11 28.43510 03 31 33.21 +12 54 09.3          21.2 RoEW141291
         K14Wa3W KC2014 11 28.43715 03 31 32.96 +12 54 17.8          21.3 RoEW141291
    
    Observer details:
    291 LPL/Spacewatch II.  Observer A. F. Tubbiolo.  1.8-m f/2.7 reflector + CCD.
    F51 Pan-STARRS 1, Haleakala.  Observers B. Gibson, T. Goggia, N. Primak,
        A. Schultz, M. Willman.  Measurers K. Chambers, S. Chastel, L. Denneau,
        H. Flewelling, M. Huber, E. Magnier, E. Schunova, R. Wainscoat, C. Waters,
        R. Weryk.  1.8-m Ritchey-Chretien + CCD.
    
    Orbital elements:
    2014 WW363                                               Earth MOID = 0.1526 AU
    Epoch 2014 Dec. 9.0 TT = JDT 2457000.5                  MPC
    M 343.56292              (2000.0)            P               Q
    n   0.58638899     Peri.   30.44346     -0.13760522     -0.96965902
    a   1.4136618      Node    68.11895     +0.85921372     -0.21834485
    e   0.2078235      Incl.   12.57639     +0.49276424     +0.10994051
    P   1.68           H   24.2           G   0.15           U   8
    Residuals in seconds of arc
    141124 F51  0.2+  0.7-    141126 F51  0.2-  0.0     141128 291  0.1+  0.0
    141124 F51  0.0   0.4+    141126 F51  0.1+  0.2-    141128 291  0.2-  0.1-
    141124 F51  0.1-  0.3+    141126 F51  0.0   0.1+    141128 291  0.2+  0.2+
    
    Ephemeris:
    2014 WW363               a,e,i = 1.41, 0.21, 13                  q = 1.1199
    Date    TT    R. A. (2000) Decl.     Delta      r     Elong.  Phase     V
    2014 10 29    04 10 44.9 -07 45 38   0.2714  1.2230   143.8    28.7    23.1
    ...
    2014 11 13    03 59 01.3 -01 07 15   0.2093  1.1860   157.7    18.4    22.1
    ...
    2014 11 21    03 46 22.6 +05 12 14   0.1859  1.1689   165.4    12.3    21.6
    ...
    2014 11 27    03 34 35.8 +11 18 18   0.1743  1.1575   167.1    11.0    21.4
    2014 11 28    03 32 30.7 +12 25 00   0.1729  1.1557   166.7    11.3    21.4
    2014 11 29    03 30 24.3 +13 33 03   0.1717  1.1539   166.1    11.8    21.4
    ...
    2014 12 05    03 17 37.0 +20 40 35   0.1677  1.1443   159.8    17.3    21.5
    ...
    2014 12 13    03 01 40.6 +30 15 48   0.1709  1.1338   148.5    26.9    21.8
    ...
    2014 12 28    02 44 17.5 +45 10 43   0.1979  1.1219   130.4    41.9    22.6
    
    A. U. Tomatic                (C) Copyright 2014 MPC           M.P.E.C. 2014-W141
    

    Read MPEC 2014-W140 Read MPEC 2014-W142


    MPEC number:

    Enter an MPEC number in one of the following forms:

    • 1997-B01 (the full form)
    • J97B01 (the packed version of the full form)
    • B01 (the abbreviated form)